Location: ??????????
(54.8537°N, 38.8755°E)
Time: 13:34:53
(UTC+00:00)

Tiros 1 despin weight - Pass Details

Date: 14 September 2024
Orbit: 573 x 615 km, 48.2° (Epoch: 06 October)

Event Time Altitude Azimuth Distance (km) Brightness Sun altitude
Rises 05:21:49 0° 268° (W) 2,893 ? 19.7°
Reaches altitude 10° 05:24:24 10° 256° (WSW) 1,985 ? 20.0°
Maximum altitude 05:28:13 27° 199° (SSW) 1,199 ? 20.5°
Drops below altitude 10° 05:32:01 10° 142° (SE) 1,970 ? 21.0°
Sets 05:34:34 0° 130° (SE) 2,866 ? 21.4°
